COSMOS 2491 DEB, 57561

Orbit data source: Space-Track

COSMOS 2491 DEB, 57561 is space debris in LEO originally from a launch on Wed, 25 Dec 2013 UTC launched from the Plesetsk Missile And Space Complex (PKMTR). Debris objects in space refer to the collection of defunct objects orbiting the Earth. Examples of debris include non-operational satellites, rocket bodies, and fragments generated from explosions, collisions, or faulty payload assembly.

Loading next visibility...
Identifier
57561, 2013-076AY
Orbit
LEO
Country
Flag of CISCIS
Related business
Manufacturer
TsNIIKhM
Mission
Spacecraft
Bus & Motor
Unknown
Mass
Unknown
Launch date (UTC)
2013-12-25 (12 years ago)
Launch vehicle
Unknown
Launch site
Plesetsk Missile And Space Complex (PKMTR)
Object type
Payload
Rocket body
Debris
Shape & HBR
Unknown shape, 0.1 m
Radar Cross Section
Small (<0.1 m²)

Expand to show TLE details & history
Last TLE update: 2 weeks ago

TLE from 2 weeks ago
0 COSMOS 2491 DEB
1 57561U 13076AY  26158.61301367  .00002344  00000-0  11113-1 0  9991
2 57561  82.7559 124.3455 0069326 214.8341 144.8210 12.73461757143129
Epoch: 2026-06-07T14:42Z
TLE epoch observation values (Epoch: 2026-06-07T14:42:44.381Z)
Latitude
0.00004°
Longitude
7.64887°
Altitude
1,414.643 km
Speed
7.133 km/s
True Right ascension
08h 17m 22s
True Declination
0° 00' 00"
Sunlit
Object was in daylight at epoch
Visualization orbit readout
Latitude
Unknown
Longitude
Unknown
Altitude
Unknown
Speed
Unknown
Apparent Right ascension
Unknown
Apparent Declination
Unknown
Sunlit
N/A
Visualization observer readout
Local Sidereal Time
21:57:40
Azimuth
Unknown
Elevation
Unknown
Doppler factor
Unknown
Orbital elements
Apogee altitude
1,418.85 km
Perigee altitude
1,311.487 km
Semi-major axis
7,743.305 km
Eccentricity
0.00693
Inclination
82.7559°
RAAN
124.3455°
Arg. of periapsis
214.8341°
True anomaly
145.27547°
Mean anomaly
144.821°
Eccentric anomaly
145.04855°
Mean motion
3.18532 °/min
Orbital period
113.02 mins
BSTAR
0.011113
Loading maneuver chart data...
Computing Atmospheric mass density...
Loading historical data...
Loading historical data...
Loading historical data...
Loading historical data...
Loading historical data...
Loading historical data...
Loading historical data...

Documentation

Showing up to 5 results
|